Hourly Weather Kack

Today, 9 March, Tuesday

Time Temperature Precipitation Wind Pressure Humidity
00:00 -4°C° 0 mm 2 mps 755 mmHg 83%
01:00 -4°C° 0 mm 2 mps 755 mmHg 78%
02:00 -4°C° 0 mm 2 mps 755 mmHg 78%
03:00 -4°C° 0 mm 2 mps 755 mmHg 78%
04:00 -4°C° 0 mm 2 mps 755 mmHg 78%
05:00 -4°C° 0 mm 2 mps 756 mmHg 76%
06:00 -4°C° 0 mm 2 mps 756 mmHg 75%
07:00 -4°C° 0 mm 2 mps 756 mmHg 73%
08:00 -3°C° 0 mm 2 mps 756 mmHg 67%
09:00 -1°C° 0 mm 1 mps 756 mmHg 61%
10:00 0°C° 0 mm 1 mps 756 mmHg 55%
11:00 0°C° 0 mm 1 mps 756 mmHg 50%
12:00 +1°C° 0 mm 1 mps 756 mmHg 46%
13:00 +2°C° 0 mm 1 mps 756 mmHg 41%
14:00 +2°C° 0 mm 1 mps 756 mmHg 41%
15:00 +1°C° 0 mm 1 mps 756 mmHg 40%
16:00 +1°C° 0 mm 1 mps 755 mmHg 40%
17:00 0°C° 0 mm 1 mps 755 mmHg 44%
18:00 0°C° 0 mm 1 mps 755 mmHg 48%
19:00 -3°C° 0 mm 2 mps 755 mmHg 52%
20:00 -3°C° 0 mm 2 mps 756 mmHg 53%
21:00 -3°C° 0 mm 2 mps 756 mmHg 54%
22:00 -3°C° 0 mm 2 mps 756 mmHg 55%
23:00 -3°C° 0 mm 2 mps 756 mmHg 57%

Tomorrow, 10 March, Wednesday

Time Temperature Precipitation Wind Pressure Humidity
00:00 -4°C° 0 mm 2 mps 756 mmHg 59%
01:00 -4°C° 0 mm 2 mps 755 mmHg 61%
02:00 -4°C° 0 mm 2 mps 755 mmHg 62%
03:00 -2°C° 0 mm 1 mps 755 mmHg 63%
04:00 -2°C° 0 mm 1 mps 755 mmHg 64%
05:00 -2°C° 0 mm 1 mps 755 mmHg 63%
06:00 -2°C° 0 mm 1 mps 755 mmHg 63%
07:00 -2°C° 0 mm 1 mps 755 mmHg 63%
08:00 0°C° 0 mm 1 mps 755 mmHg 57%
09:00 +1°C° 0 mm 1 mps 756 mmHg 51%
10:00 +1°C° 0 mm 0 mps 756 mmHg 45%
11:00 +1°C° 0 mm 0 mps 756 mmHg 43%
12:00 +2°C° 0 mm 0 mps 756 mmHg 41%
13:00 +3°C° 0 mm 0 mps 756 mmHg 38%
14:00 +2°C° 0 mm 0 mps 755 mmHg 39%
15:00 +3°C° 0 mm 1 mps 755 mmHg 40%
16:00 +3°C° 0 mm 1 mps 755 mmHg 41%
17:00 +2°C° 0 mm 1 mps 755 mmHg 45%
18:00 +1°C° 0 mm 1 mps 755 mmHg 49%
19:00 0°C° 0 mm 1 mps 756 mmHg 53%
20:00 0°C° 0 mm 1 mps 756 mmHg 54%
21:00 -1°C° 0 mm 1 mps 756 mmHg 55%
22:00 -3°C° 0 mm 2 mps 756 mmHg 56%
23:00 -3°C° 0 mm 2 mps 756 mmHg 57%

Day after tomorrow, 11 March, Thursday

Time Temperature Precipitation Wind Pressure Humidity
00:00 -3°C° 0 mm 2 mps 756 mmHg 58%
01:00 -3°C° 0 mm 2 mps 756 mmHg 59%
02:00 -3°C° 0 mm 2 mps 755 mmHg 59%
03:00 -3°C° 0 mm 2 mps 755 mmHg 59%
04:00 -3°C° 0 mm 2 mps 755 mmHg 60%
05:00 -4°C° 0 mm 3 mps 755 mmHg 58%
06:00 -4°C° 0 mm 3 mps 755 mmHg 57%
07:00 -4°C° 0 mm 3 mps 755 mmHg 56%
08:00 -3°C° 0 mm 4 mps 754 mmHg 51%
09:00 -1°C° 0 mm 5 mps 754 mmHg 46%
10:00 0°C° 0 mm 5 mps 754 mmHg 41%
11:00 -1°C° 0 mm 6 mps 753 mmHg 40%
12:00 +1°C° 0 mm 6 mps 752 mmHg 40%
13:00 +1°C° 0 mm 6 mps 751 mmHg 40%
14:00 +1°C° 0 mm 6 mps 750 mmHg 42%
15:00 +1°C° 0 mm 6 mps 750 mmHg 45%
16:00 +1°C° 0 mm 6 mps 749 mmHg 47%
17:00 -1°C° 0.1 mm 7 mps 748 mmHg 50%
18:00 -1°C° 0.1 mm 7 mps 747 mmHg 53%
19:00 -1°C° 0.1 mm 7 mps 747 mmHg 56%
20:00 -1°C° 0.7 mm 7 mps 746 mmHg 69%
21:00 -2°C° 0.7 mm 8 mps 745 mmHg 83%
22:00 -2°C° 0.7 mm 8 mps 745 mmHg 96%
23:00 -1°C° 1 mm 8 mps 744 mmHg 95%

12 March, Friday

Time Temperature Precipitation Wind Pressure Humidity
00:00 -1°C° 1 mm 7 mps 743 mmHg 95%
01:00 +1°C° 1 mm 6 mps 743 mmHg 94%
02:00 +1°C° 0.2 mm 6 mps 742 mmHg 94%
03:00 +1°C° 0.2 mm 5 mps 742 mmHg 94%
04:00 +1°C° 0.2 mm 4 mps 742 mmHg 94%
05:00 +2°C° 0.2 mm 5 mps 742 mmHg 93%
06:00 +2°C° 0.2 mm 5 mps 742 mmHg 93%
07:00 +2°C° 0.2 mm 5 mps 743 mmHg 92%
08:00 +3°C° 0.1 mm 6 mps 743 mmHg 87%
09:00 +3°C° 0.1 mm 7 mps 743 mmHg 82%
10:00 +3°C° 0.1 mm 7 mps 743 mmHg 77%
11:00 +2°C° 0.1 mm 8 mps 744 mmHg 79%
12:00 +2°C° 0.1 mm 8 mps 745 mmHg 81%
13:00 +2°C° 0.1 mm 8 mps 745 mmHg 83%
14:00 +3°C° 0 mm 7 mps 746 mmHg 80%
15:00 +3°C° 0 mm 5 mps 746 mmHg 78%
16:00 +4°C° 0 mm 4 mps 747 mmHg 75%
17:00 +4°C° 0 mm 4 mps 747 mmHg 78%
18:00 +3°C° 0 mm 3 mps 747 mmHg 80%
19:00 +2°C° 0 mm 3 mps 748 mmHg 82%
20:00 +1°C° 0 mm 3 mps 748 mmHg 83%
21:00 +1°C° 0 mm 3 mps 748 mmHg 83%
22:00 0°C° 0 mm 3 mps 748 mmHg 84%
23:00 0°C° 0 mm 3 mps 748 mmHg 84%

13 March, Saturday

Time Temperature Precipitation Wind Pressure Humidity
00:00 0°C° 0 mm 3 mps 747 mmHg 84%
01:00 0°C° 0 mm 3 mps 747 mmHg 84%
02:00 -1°C° 0 mm 4 mps 747 mmHg 84%
03:00 -1°C° 0 mm 4 mps 746 mmHg 84%
04:00 -1°C° 0 mm 4 mps 746 mmHg 85%
05:00 -1°C° 0 mm 5 mps 746 mmHg 84%
06:00 0°C° 0 mm 5 mps 745 mmHg 84%
07:00 0°C° 0 mm 5 mps 745 mmHg 83%
08:00 +1°C° 0.1 mm 6 mps 745 mmHg 86%
09:00 +1°C° 0.1 mm 6 mps 745 mmHg 89%
10:00 +2°C° 0.1 mm 6 mps 746 mmHg 92%
11:00 +2°C° 0.2 mm 6 mps 746 mmHg 87%
12:00 +3°C° 0.2 mm 5 mps 746 mmHg 82%
13:00 +5°C° 0.2 mm 5 mps 746 mmHg 77%
14:00 +5°C° 0.1 mm 4 mps 746 mmHg 73%
15:00 +6°C° 0.1 mm 4 mps 745 mmHg 69%
16:00 +7°C° 0.1 mm 3 mps 745 mmHg 65%
17:00 +5°C° 0 mm 4 mps 745 mmHg 69%
18:00 +4°C° 0 mm 4 mps 745 mmHg 73%
19:00 +3°C° 0 mm 4 mps 745 mmHg 77%
20:00 +3°C° 0 mm 4 mps 745 mmHg 77%
21:00 +3°C° 0 mm 5 mps 745 mmHg 77%
22:00 +3°C° 0 mm 5 mps 745 mmHg 76%
23:00 +3°C° 0 mm 5 mps 744 mmHg 78%

14 March, Sunday

Time Temperature Precipitation Wind Pressure Humidity
00:00 +3°C° 0 mm 5 mps 744 mmHg 80%
01:00 +5°C° 0 mm 5 mps 743 mmHg 82%
02:00 +4°C° 0 mm 6 mps 743 mmHg 82%
03:00 +4°C° 0 mm 6 mps 743 mmHg 81%
04:00 +4°C° 0 mm 6 mps 742 mmHg 81%
05:00 +4°C° 0 mm 6 mps 742 mmHg 80%
06:00 +4°C° 0 mm 6 mps 742 mmHg 79%
07:00 +4°C° 0 mm 6 mps 741 mmHg 79%
08:00 +5°C° 0 mm 6 mps 741 mmHg 77%
09:00 +5°C° 0 mm 7 mps 741 mmHg 76%
10:00 +6°C° 0 mm 7 mps 741 mmHg 75%
11:00 +6°C° 0.4 mm 7 mps 741 mmHg 77%
12:00 +6°C° 0.4 mm 7 mps 741 mmHg 78%
13:00 +6°C° 0.4 mm 7 mps 741 mmHg 80%
14:00 +7°C° 0.1 mm 6 mps 742 mmHg 76%
15:00 +6°C° 0.1 mm 5 mps 742 mmHg 71%
16:00 +6°C° 0.1 mm 4 mps 742 mmHg 67%
17:00 +5°C° 0 mm 4 mps 742 mmHg 68%
18:00 +5°C° 0 mm 4 mps 743 mmHg 70%
19:00 +4°C° 0 mm 4 mps 743 mmHg 71%
20:00 +4°C° 0 mm 4 mps 744 mmHg 73%
21:00 +3°C° 0 mm 4 mps 744 mmHg 75%
22:00 +3°C° 0 mm 4 mps 744 mmHg 77%
23:00 +1°C° 0 mm 4 mps 744 mmHg 80%
Show more

We Need Your Consent

Meteoprog and our Service Providers may store and access personal data such as cookies, device identifiers or other similar technologies on your device and process such data to personalise content and ads, as well as provide social media features and to analyse the traffic.

  • Store and/or access information on your device

    Cookies, device identifiers or other information can be stored or accessed on your device for the purposes indicated above.

  • Personalised ads and content, ad and content measurement, audience insights, and products development

    Ads and content can be personalised based on a profile. More data can be added to better personalise ads and content. Ad and content performance can be measured. Insights about the audience who saw the ads and content can be derived. Such data can be used to develop or improve user’s experience, systems and software.

By clicking ‘I Agree’ you will allow the use of indicated cookies, device identifiers, web beacons or other similar technologies. Your settings can be changed in the browser on your device.

For certain purposes, legitimate interests may be relied on, rather than consent. You can read more about this in our Privacy and Cookie Policy.